GW5728 Weather Reports


time (UTC)temp
F
wind
direction
speed
knots
gust
knots
rain 1hr
in
rain 24hr
in
rain mn
in
humidity
%
barometer
mb
20260503223550 92 198 0.9 9.6 0.00 0.00 0.00 29 1048.9
20260503223050 92 208 0.9 9.6 0.00 0.00 0.00 31 1062.2
20260503222550 92 245 1.7 9.6 0.00 0.00 0.00 30 1069.8
20260503222051 92 289 1.7 9.6 0.00 0.00 0.00 31 1070.6
20260503221551 92 245 1.7 9.6 0.00 0.00 0.00 28 1073.6
20260503221050 92 220 1.7 9.6 0.00 0.00 0.00 27 1068.2
20260503220550 92 227 0.9 9.6 0.00 0.00 0.00 28 1071.1
20260503215535 92 228 1.7 9.6 0.00 0.00 0.00 31 1068.8
20260503215035 91 12 0.9 9.6 0.00 0.00 0.00 38 1068.4
20260503214536 91 251 1.7 9.6 0.00 0.00 0.00 31 1068.9
20260503214035 91 274 0.9 9.6 0.00 0.00 0.00 33 1063.3
20260503213536 91 276 1.7 9.6 0.00 0.00 0.00 32 1066.6
20260503213035 91 264 1.7 9.6 0.00 0.00 0.00 33 1068.7
20260503212536 91 272 0.9 9.6 0.00 0.00 0.00 35 1063.8
20260503211521 90 285 0.9 9.6 0.00 0.00 0.00 34 1075.1
20260503210505 89 294 1.7 9.6 0.00 0.00 0.00 38 1069.3
20260503205451 89 239 0.9 9.6 0.00 0.00 0.00 33 1064.4
20260503204951 88 273 1.7 9.6 0.00 0.00 0.00 37 1066.0
20260503204451 88 217 0.9 9.6 0.00 0.00 0.00 37 1063.7
20260503203951 88 230 1.7 9.6 0.00 0.00 0.00 38 1065.5
20260503203451 88 294 0.9 9.6 0.00 0.00 0.00 38 1068.9
20260503202951 88 232 0.9 9.6 0.00 0.00 0.00 37 1068.7
20260503202451 87 276 2.6 9.6 0.00 0.00 0.00 38 1068.5
20260503201951 87 216 0.9 9.6 0.00 0.00 0.00 38 1069.0
20260503201451 87 241 1.7 9.6 0.00 0.00 0.00 38 1064.4
20260503200436 86 262 1.7 9.6 0.00 0.00 0.00 43 1070.8
20260503195936 86 212 0.9 9.6 0.00 0.00 0.00 40 1068.3
20260503194921 86 286 0.9 9.6 0.00 0.00 0.00 44 1079.6
20260503194421 86 273 0.9 9.6 0.00 0.00 0.00 46 1082.7
20260503193406 85 302 0.9 9.6 0.00 0.00 0.00 44 1080.4
20260503192906 85 328 0.9 9.6 0.00 0.00 0.00 49 1075.6
20260503192406 84 308 0.9 9.6 0.00 0.00 0.00 45 1072.6
20260503191906 84 320 0.9 9.6 0.00 0.00 0.00 46 1081.0
20260503191406 84 307 0.9 9.6 0.00 0.00 0.00 48 1088.5
20260503190906 84 314 0.9 9.6 0.00 0.00 0.00 49 1083.7
20260503190406 83 320 0.9 9.6 0.00 0.00 0.00 48 1086.6
20260503185906 83 215 0.9 9.6 0.00 0.00 0.00 51 1075.1
20260503185406 82 330 0.9 9.6 0.00 0.00 0.00 51 1076.2
20260503184906 82 301 0.9 9.6 0.00 0.00 0.00 48 1076.4
20260503184406 81 248 0.9 9.6 0.00 0.00 0.00 50 1069.7
20260503183905 80 280 0.9 9.6 0.00 0.00 0.00 51 1068.5
20260503182850 80 254 0.9 9.6 0.00 0.00 0.00 49 1067.5
20260503182350 79 100 0.9 9.6 0.00 0.00 0.00 51 1056.9
20260503181850 79 302 0.9 9.6 0.00 0.00 0.00 54 1068.4
20260503181350 79 246 1.7 9.6 0.00 0.00 0.00 49 1057.5
20260503180850 79 328 0.0 9.6 0.00 0.00 0.00 52 1059.3
20260503180350 78 317 0.9 9.6 0.00 0.00 0.00 50 1058.8
20260503175850 77 227 1.7 9.6 0.00 0.00 0.00 51 1065.3
20260503175350 77 166 1.7 9.6 0.00 0.00 0.00 50 1055.3
20260503174849 77 295 0.9 9.6 0.00 0.00 0.00 54 1060.6
20260503174349 76 199 0.9 9.6 0.00 0.00 0.00 52 1052.6
20260503173848 76 200 1.7 9.6 0.00 0.00 0.00 53 1054.4
20260503172318 76 237 0.9 9.6 0.00 0.00 0.00 57 1053.2
20260503171818 76 192 0.0 9.6 0.00 0.00 0.00 58 1061.7
20260503171318 75 256 0.9 9.6 0.00 0.00 0.00 60 1070.0
20260503170818 75 225 0.0 9.6 0.00 0.00 0.00 60 1070.4
20260503170318 74 233 0.0 9.6 0.00 0.00 0.00 58 1075.3
20260503160218 69 89 0.0 9.6 0.00 0.00 0.00 67 1009.1
20260503150648 63 163 0.0 9.6 0.00 0.00 0.00 81 1039.2
20260503150149 62 163 0.0 9.6 0.00 0.00 0.00 83 1039.2
20260503131018 49 163 0.0 9.6 0.00 0.00 0.00 95 1038.9
20260503130519 49 163 0.0 9.6 0.00 0.00 0.00 95 1038.9
20260503110449 51 163 0.0 9.6 0.00 0.00 0.00 93 1038.8
20260503090404 54 163 0.0 9.6 0.00 0.00 0.00 92 1038.8
20260503081349 56 163 0.0 9.6 0.00 0.00 0.00 90 1038.7
20260503080849 56 163 0.0 9.6 0.00 0.00 0.00 90 1038.6
20260503072834 57 163 0.0 9.6 0.00 0.00 0.00 88 1038.5
20260503072335 58 163 0.0 9.6 0.00 0.00 0.00 89 1038.5
20260503071834 58 163 0.0 9.6 0.00 0.00 0.00 88 1038.6
20260503071334 58 163 0.0 9.6 0.00 0.00 0.00 88 1038.7
20260503070320 58 203 0.0 9.6 0.00 0.00 0.00 88 1031.7
20260503060304 60 84 0.0 9.6 0.00 0.00 0.00 85 1005.0
20260503054804 61 84 0.0 9.6 0.00 0.00 0.00 84 1005.1
20260503054305 61 84 0.0 9.6 0.00 0.00 0.00 85 1005.1
20260503053805 61 84 0.0 9.6 0.00 0.00 0.00 84 1005.1
20260503053304 61 84 0.0 9.6 0.00 0.00 0.00 83 1005.1
20260503052805 61 84 0.0 9.6 0.00 0.00 0.00 83 1005.2
20260503052305 61 84 0.0 9.6 0.00 0.00 0.00 83 1005.2
20260503051805 62 84 0.0 9.6 0.00 0.00 0.00 82 1005.2
20260503051305 62 84 0.0 9.6 0.00 0.00 0.00 82 1005.3
20260503050805 62 84 0.0 9.6 0.00 0.00 0.00 82 1005.3
20260503050305 62 84 0.0 9.6 0.00 0.00 0.00 82 1005.4
20260503045805 62 84 0.0 9.6 0.00 0.00 0.00 81 1005.5
20260503045305 62 84 0.0 9.6 0.00 0.00 0.00 80 1005.6
20260503044805 63 84 0.0 9.6 0.00 0.00 0.00 80 1005.7
20260503044305 63 84 0.0 9.6 0.00 0.00 0.00 79 1006.0
20260503043805 63 84 0.0 9.6 0.00 0.00 0.00 78 1006.4
20260503043305 64 84 0.0 9.6 0.00 0.00 0.00 78 1007.0
20260503042805 64 84 0.0 9.6 0.00 0.00 0.00 77 1008.2
20260503042305 64 84 0.0 9.6 0.00 0.00 0.00 76 1010.4
20260503041805 65 84 0.0 9.6 0.00 0.00 0.00 75 1014.5
20260503041305 65 84 0.0 9.6 0.00 0.00 0.00 74 1022.4
20260503040805 65 84 0.0 9.6 0.00 0.00 0.00 74 1038.0
20260503040305 66 83 0.0 9.6 0.00 0.00 0.00 73 1069.7
20260503035805 66 309 0.0 9.6 0.00 0.00 0.00 74 1100.4
20260503035305 66 309 0.0 9.6 0.00 0.00 0.00 72 1099.2
20260503034805 67 293 0.0 9.6 0.00 0.00 0.00 72 1094.7
20260503034305 67 293 0.0 9.6 0.00 0.00 0.00 71 1095.1
20260503033805 68 293 0.0 9.6 0.00 0.00 0.00 69 1095.6
20260503033305 68 293 0.0 9.6 0.00 0.00 0.00 68 1096.6
20260503032805 69 293 0.0 9.6 0.00 0.00 0.00 68 1098.8
20260503032305 69 320 0.0 9.6 0.00 0.00 0.00 66 1102.6
20260503031805 69 321 0.0 9.6 0.00 0.00 0.00 66 1099.4
20260503030750 70 288 0.0 9.6 0.00 0.00 0.00 67 1090.7
20260503030250 71 288 0.0 9.6 0.00 0.00 0.00 64 1089.6
20260503025750 71 288 0.0 9.6 0.00 0.00 0.00 62 1087.5
20260503024735 73 253 0.0 9.6 0.00 0.00 0.00 58 1081.0
20260503024235 73 305 0.0 9.6 0.00 0.00 0.00 58 1089.1
20260503023220 74 230 0.0 9.6 0.00 0.00 0.00 54 1080.4
20260503022720 75 229 0.0 9.6 0.00 0.00 0.00 55 1087.8
20260503021705 75 288 0.9 9.6 0.00 0.00 0.00 52 1088.5
20260503021205 76 297 0.9 9.6 0.00 0.00 0.00 53 1086.6
20260503020705 76 227 0.9 9.6 0.00 0.00 0.00 53 1084.7
20260503020205 77 304 0.0 9.6 0.00 0.00 0.00 51 1088.3
20260503015705 77 348 0.9 9.6 0.00 0.00 0.00 55 1072.8
20260503014650 78 212 0.0 9.6 0.00 0.00 0.00 52 1071.7
20260503014150 78 277 0.9 9.6 0.00 0.00 0.00 50 1075.3
20260503013650 78 307 0.9 9.6 0.00 0.00 0.00 51 1067.9
20260503013150 78 308 0.9 9.6 0.00 0.00 0.00 50 1073.4
20260503012135 78 169 0.0 9.6 0.00 0.00 0.00 49 1051.5
20260503011635 78 127 0.0 9.6 0.00 0.00 0.00 49 1049.7
20260503011135 79 179 0.9 9.6 0.00 0.00 0.00 49 1067.3
20260503010120 79 352 0.0 9.6 0.00 0.00 0.00 49 1081.8
20260503005620 79 287 0.9 9.6 0.00 0.00 0.00 48 1081.7
20260503005120 79 295 0.9 9.6 0.00 0.00 0.00 50 1082.0
20260503004620 79 260 0.0 9.6 0.00 0.00 0.00 49 1081.9
20260503004120 79 307 0.0 9.6 0.00 0.00 0.00 53 1077.7
20260503003620 79 212 0.9 9.6 0.00 0.00 0.00 50 1063.0
20260503003120 79 268 0.0 9.6 0.00 0.00 0.00 49 1068.1
20260503002105 79 286 1.7 9.6 0.00 0.00 0.00 49 1082.4
20260503001605 79 247 1.7 9.6 0.00 0.00 0.00 48 1076.0
20260503001105 79 322 0.9 9.6 0.00 0.00 0.00 50 1076.0
20260503000605 79 231 0.9 9.6 0.00 0.00 0.00 49 1066.7
20260503000105 79 281 1.7 9.6 0.00 0.00 0.00 49 1078.2
20260502235605 79 270 0.9 9.6 0.00 0.00 0.00 49 1072.4
20260502235105 79 247 2.6 9.6 0.00 0.00 0.00 48 1070.4
20260502234605 79 251 2.6 10.4 0.00 0.00 0.00 49 1067.4
20260502234106 79 212 2.6 10.4 0.00 0.00 0.00 49 1061.4
20260502232536 78 222 1.7 10.4 0.00 0.00 0.00 49 1054.4
20260502232035 78 203 1.7 10.4 0.00 0.00 0.00 52 1050.9
20260502231535 78 284 1.7 10.4 0.00 0.00 0.00 52 1059.3
20260502231035 78 251 1.7 10.4 0.00 0.00 0.00 54 1060.4
20260502230536 78 209 2.6 10.4 0.00 0.00 0.00 51 1051.2
20260502230036 78 150 1.7 10.4 0.00 0.00 0.00 51 1050.2
20260502225535 78 113 1.7 10.4 0.00 0.00 0.00 53 1052.4
20260502225035 77 266 0.9 10.4 0.00 0.00 0.00 56 1061.8
20260502224021 77 291 0.9 10.4 0.00 0.00 0.00 53 1065.3